Wind_Speed
11 12 12 12 12 12 11 11 10 10 9 8 8 7 7 7 7 8 9 9 9 9 8 7 7 7 6 6 7 7 8 8 8 8 6 5 4 3 4 4 3 3 3 2 2 2 3 4 5 5 5 6 6 6 6 6 6 6 5 6 6 6 7 7 8 9 9 9 10 10 10 10 10 10 10 10 9 9 9 9 10 9 9 10 10
10 12 12 12 12 12 12 11 10 9 8 8 7 6 6 7 8 9 9 9 9 9 9 8 7 7 8 7 6 6 7 8 8 8 7 6 5 4 4 4 4 3 3 3 3 3 3 3 4 5 5 6 6 6 6 6 6 6 6 7 7 7 7 7 8 9 9 9 10 10 10 10 10 10 10 10 9 9 9 9 10 10 10 10 11
11 12 12 12 12 12 11 10 9 8 8 7 6 6 7 7 8 9 9 10 10 10 10 9 8 8 8 7 6 6 7 7 7 6 6 6 6 5 5 5 4 4 3 4 4 4 4 4 4 5 5 6 6 6 6 7 7 7 7 7 7 7 8 8 8 8 9 9 10 10 10 10 10 10 10 10 10 9 9 10 10 10 11 11 12
12 12 12 11 11 11 10 9 8 8 7 6 6 6 7 7 8 8 9 9 9 10 10 8 8 8 7 7 6 5 6 6 5 5 5 6 6 6 5 5 5 5 5 5 5 5 5 6 6 6 7 7 7 7 6 7 7 7 7 8 8 9 9 9 9 9 10 10 11 11 11 11 11 12 11 11 11 11 11 11 11 12 12 13 14
10 10 10 10 10 10 9 8 8 7 6 5 5 6 6 7 7 7 8 8 9 9 9 7 7 8 6 5 6 5 6 6 5 4 4 5 6 6 6 6 6 6 7 7 7 7 7 7 8 8 8 8 9 8 8 8 8 8 9 9 10 10 11 11 11 11 11 11 12 12 12 12 13 13 13 13 13 12 12 12 13 13 14 14 15
8 8 8 8 8 8 7 7 7 6 5 4 5 5 6 6 6 6 7 8 8 9 8 7 7 7 6 5 5 6 6 6 5 4 4 4 5 5 5 5 6 6 7 7 8 8 8 8 9 9 9 9 9 9 9 9 10 10 10 11 11 11 11 11 11 11 11 12 12 12 13 13 13 14 14 13 13 12 13 13 13 13 13 14 15
7 6 6 6 6 6 6 5 5 5 4 4 4 5 5 5 5 6 7 7 8 8 8 8 7 7 7 7 5 6 6 6 6 5 4 4 5 5 5 5 5 6 6 7 7 8 8 8 8 9 9 9 9 9 9 10 10 11 11 12 12 12 12 12 12 11 12 12 12 12 13 13 14 14 13 11 11 12 13 13 13 12 11 12 13
6 6 6 6 6 5 5 4 4 4 3 4 4 4 5 5 5 6 7 8 7 7 8 8 7 6 7 7 6 6 6 5 5 4 4 4 4 5 5 5 5 6 6 7 7 7 7 7 8 8 8 9 9 9 10 10 11 11 12 12 13 13 12 12 11 11 11 11 12 12 13 13 12 11 10 10 10 12 12 12 12 11 10 12 13
6 6 7 7 6 5 4 4 3 3 3 3 4 4 5 5 5 6 7 8 7 6 7 7 7 6 6 5 6 6 5 5 5 4 4 5 5 4 5 5 5 6 7 7 7 7 7 7 7 8 8 9 9 9 10 11 11 12 13 13 13 12 11 10 9 9 10 10 11 11 11 10 9 8 8 9 10 11 11 11 11 10 9 11 12
6 6 6 6 6 5 4 4 3 3 3 4 4 4 5 5 5 6 7 7 7 7 8 8 7 6 5 4 5 5 5 5 5 5 5 5 5 5 5 5 5 6 7 7 7 7 7 7 7 8 8 8 9 9 10 10 12 13 14 14 13 12 11 10 9 9 9 10 10 9 8 8 8 8 8 9 10 10 10 10 10 9 8 10 11
6 6 5 5 5 4 4 4 4 4 4 3 3 4 5 5 5 6 6 7 7 8 8 9 8 6 5 4 4 5 4 4 4 4 4 4 4 5 4 4 5 5 6 7 7 7 7 7 8 8 8 8 8 8 9 11 12 13 14 14 14 12 11 11 9 9 9 9 9 8 9 9 9 9 9 10 10 9 9 9 9 9 9 9 9
6 6 5 5 5 5 4 4 4 4 3 3 3 4 4 5 5 5 6 5 6 7 8 8 7 6 5 4 4 5 4 3 3 2 2 3 3 3 3 3 4 5 6 7 7 7 7 7 7 8 8 7 7 8 10 11 12 13 13 15 15 13 11 11 10 10 10 10 10 10 10 10 10 10 10 10 9 9 10 10 10 9 9 9 9
7 6 6 5 4 5 5 4 4 4 3 2 3 3 4 5 5 5 5 5 5 6 7 7 7 7 6 5 4 3 2 2 3 3 2 1 1 2 2 2 3 4 6 6 6 7 7 7 8 8 8 7 8 9 10 12 12 12 13 15 16 12 11 11 11 11 11 11 11 11 11 11 11 11 11 10 10 10 11 12 11 10 10 10 11
7 7 6 5 4 4 4 5 5 4 3 2 2 2 3 5 5 5 5 5 5 6 7 6 6 7 6 5 5 4 4 4 3 2 2 2 2 1 2 2 2 3 5 5 6 6 7 7 8 7 7 7 8 9 11 12 12 12 13 16 16 13 11 11 11 12 12 12 12 12 12 12 12 11 11 11 12 12 13 13 12 12 12 13 13
7 6 6 5 4 3 4 4 4 3 2 1 1 2 3 4 5 5 4 4 4 5 7 6 6 6 5 3 4 3 4 6 6 5 3 2 2 2 1 2 2 2 4 4 5 6 6 6 6 6 6 6 8 8 11 12 12 12 13 16 17 14 13 13 13 13 13 13 13 13 14 13 12 12 12 13 14 15 15 15 15 15 16 17 17
6 6 5 5 3 3 3 3 3 3 2 1 2 2 3 4 5 6 5 4 4 5 6 7 7 6 4 2 3 2 3 6 7 6 5 3 1 1 1 1 2 2 3 3 4 5 4 4 4 5 6 6 7 8 10 11 11 13 13 15 16 16 16 16 15 15 15 15 15 15 15 14 14 13 13 14 16 17 17 17 16 17 18 19 19
6 6 5 4 3 3 3 3 3 3 2 2 2 2 3 4 4 5 6 6 5 4 5 6 7 6 5 3 2 2 4 6 6 5 7 6 5 3 2 1 1 2 2 2 3 4 5 4 4 5 6 7 7 7 9 10 10 12 13 15 15 16 17 17 17 18 18 18 18 18 17 16 15 14 15 16 17 18 18 17 17 19 20 20 20
6 6 5 4 4 4 3 3 3 3 3 2 2 2 3 3 4 4 6 6 6 5 5 6 6 7 6 3 2 2 3 6 5 3 5 6 6 6 5 3 3 3 3 3 4 5 5 5 5 6 7 8 8 7 8 9 10 11 12 13 14 15 15 15 16 17 18 18 19 20 19 18 17 16 16 16 17 18 18 18 18 19 21 21 21
7 7 6 5 5 5 4 4 4 4 4 2 2 2 2 3 3 4 5 6 7 6 5 6 6 6 5 3 2 1 1 4 4 3 2 4 6 7 7 6 4 4 3 3 4 4 5 6 6 7 7 8 9 8 7 8 10 10 10 12 13 13 13 13 14 14 16 17 18 19 19 19 18 17 17 17 17 18 18 18 18 20 21 21 21
8 7 7 6 5 5 5 5 4 5 5 3 2 2 3 3 3 4 4 5 6 5 5 6 5 5 5 5 4 3 3 3 5 3 2 3 5 6 7 7 6 5 4 4 5 5 6 6 6 6 7 9 10 8 7 8 9 8 9 11 12 12 12 12 12 13 13 14 15 16 18 18 18 18 18 18 17 17 18 18 19 20 22 22 22
8 8 8 7 6 6 5 5 5 5 6 4 3 3 3 3 3 3 3 3 4 5 5 5 5 5 6 6 4 4 3 3 4 4 1 2 4 5 7 7 6 6 7 6 6 6 6 6 6 6 7 9 9 8 7 7 7 7 8 9 10 11 12 12 13 13 13 14 14 15 16 17 18 17 18 18 17 17 17 18 19 20 21 22 22
9 8 8 8 7 7 6 6 6 6 6 5 4 3 4 4 3 2 2 2 2 3 3 3 4 4 5 6 5 4 3 3 5 5 2 1 2 4 6 6 5 7 8 8 7 8 7 6 6 6 7 8 7 6 6 5 5 5 6 8 9 10 11 12 13 13 14 14 14 14 15 15 16 16 17 17 17 17 17 17 18 19 20 21 21
9 9 9 9 8 8 7 6 7 7 7 6 4 4 3 4 3 3 2 1 0 1 2 2 3 3 3 4 4 4 3 4 5 6 4 2 2 3 5 5 4 6 8 9 8 8 8 7 7 7 7 6 4 4 4 4 4 5 6 7 8 9 10 11 12 13 13 14 14 14 14 14 14 15 15 15 16 16 16 16 17 18 19 20 21
9 9 9 9 9 8 7 7 8 7 7 6 6 5 4 4 4 3 2 2 2 2 2 2 2 2 2 2 3 3 3 3 4 4 5 4 3 3 4 5 3 4 8 8 8 7 8 8 8 7 6 3 2 3 3 3 4 5 6 7 8 9 9 10 11 12 12 13 14 14 14 14 14 14 14 15 14 15 15 16 16 17 18 19 20
9 10 9 9 8 8 7 7 7 7 7 7 7 6 5 5 5 4 4 4 4 4 4 4 3 3 3 3 3 3 3 3 3 3 4 3 2 3 4 3 2 4 6 7 7 5 6 8 8 7 4 1 1 2 3 4 5 6 7 8 8 9 9 10 10 11 11 11 12 13 14 14 14 13 13 14 14 14 15 15 16 17 18 19 19
9 10 9 8 8 7 6 7 7 7 7 7 7 6 5 5 5 5 5 5 5 5 5 5 4 4 4 4 4 4 3 3 3 3 3 3 3 4 4 3 2 3 3 5 6 5 5 7 7 6 4 1 2 4 4 6 6 7 9 9 9 9 10 10 10 11 10 10 11 12 13 14 14 13 13 13 14 14 15 14 15 16 17 18 18
8 10 9 8 7 6 6 6 6 6 6 7 7 6 6 6 6 6 6 6 6 6 6 5 5 5 5 5 5 5 4 4 4 4 4 3 3 4 4 4 3 3 3 3 4 4 5 6 5 5 6 5 5 6 6 7 7 8 9 10 10 10 11 11 11 12 12 12 12 13 14 14 14 13 12 12 13 14 15 14 15 16 17 18 18
6 7 8 7 6 5 5 5 5 6 6 7 7 6 6 6 6 7 6 6 7 6 6 5 5 5 5 5 6 6 5 5 5 5 4 3 3 3 3 3 3 3 3 3 3 4 4 5 4 3 6 7 6 7 7 7 7 9 10 11 12 12 13 13 12 12 13 14 15 15 14 14 13 13 13 12 12 13 15 15 15 16 17 18 18
6 6 7 7 6 5 5 4 5 5 6 6 6 6 7 6 7 7 6 6 7 7 6 5 5 5 5 6 6 6 6 5 6 5 4 4 3 3 3 3 2 3 3 3 4 4 4 5 5 5 8 10 8 8 9 8 9 10 11 11 13 13 14 15 15 15 15 16 16 15 13 13 13 13 13 13 13 13 14 15 16 16 17 18 18
7 7 6 6 6 5 5 5 5 5 6 6 6 7 7 7 7 7 7 6 7 7 7 7 6 5 6 6 6 7 6 6 6 5 5 4 4 4 4 3 3 4 4 4 4 4 5 6 6 7 10 11 9 9 9 9 10 10 11 12 14 15 16 17 17 17 17 16 15 13 13 13 13 13 13 13 13 14 15 15 16 16 17 18 18
7 7 6 6 6 5 5 5 5 6 6 7 7 7 7 7 7 7 7 8 8 7 7 7 6 6 7 7 7 7 7 7 7 6 6 6 5 5 5 5 5 5 5 5 4 4 5 7 8 8 9 11 10 10 9 9 10 11 12 13 15 16 17 18 18 17 16 16 14 13 14 15 15 14 14 13 13 14 14 15 16 16 17 18 18
6 6 7 7 6 5 5 5 6 6 6 7 7 7 7 8 8 7 7 8 9 8 8 8 7 8 8 8 8 8 7 7 8 7 7 7 7 6 6 7 7 7 6 6 6 7 7 8 9 9 9 10 11 10 11 10 11 13 14 15 16 17 17 16 17 18 16 15 14 15 16 17 16 15 14 13 13 13 14 15 16 16 16 17 18
7 6 6 7 6 6 6 6 6 6 6 7 8 8 8 9 9 9 9 10 10 9 9 9 9 8 9 9 9 9 9 9 8 8 8 8 7 7 7 7 7 7 6 7 8 9 9 9 10 10 10 12 12 11 12 12 12 14 16 16 16 16 15 15 17 17 16 14 15 17 18 17 16 16 15 14 13 14 14 15 16 16 16 17 18
8 8 7 7 7 6 7 7 7 7 7 7 8 9 9 10 10 9 9 10 10 9 10 10 10 9 9 10 10 9 9 9 9 9 9 8 8 8 8 8 8 8 7 7 8 10 11 11 10 11 11 12 12 12 13 13 14 16 17 15 14 13 14 15 14 14 14 15 15 17 17 17 16 16 15 14 14 14 15 15 16 16 16 17 18
9 9 9 8 8 7 8 8 7 7 8 8 9 9 9 10 10 10 9 9 9 9 9 10 9 9 9 10 10 9 9 9 10 9 9 9 9 9 9 9 10 9 8 9 9 10 12 12 11 11 12 12 13 14 15 16 16 17 16 15 15 14 14 14 12 12 13 14 14 15 16 16 15 15 15 14 13 13 14 15 15 16 17 17 17
9 9 9 9 9 9 9 9 9 9 9 9 10 10 10 10 10 10 10 10 10 10 10 10 9 9 9 10 10 9 9 10 11 10 9 9 9 9 10 10 10 10 9 10 11 10 11 13 12 13 15 17 17 16 17 18 18 18 18 18 18 16 16 15 12 12 14 16 16 16 16 16 15 14 13 14 13 13 13 14 15 16 16 17 17
9 9 10 10 10 10 10 10 11 11 10 10 11 11 11 11 11 11 11 12 12 12 12 12 11 11 11 11 11 10 10 11 11 11 10 11 11 11 11 10 10 10 10 10 12 11 11 12 13 14 16 17 17 18 18 17 17 18 20 20 19 18 19 18 14 13 16 17 17 17 18 18 17 15 14 14 14 13 13 14 15 16 16 17 16
11 10 10 11 12 12 12 12 12 12 11 12 12 12 12 12 12 12 13 13 14 14 14 13 13 13 13 13 12 12 12 12 11 11 11 12 12 11 12 12 11 11 11 11 11 12 11 11 12 13 14 14 15 17 18 18 18 19 19 20 20 20 21 21 18 17 16 16 17 18 17 18 18 18 17 16 15 15 15 16 16 17 17 17 16
13 12 12 12 14 14 14 14 13 12 12 12 13 14 13 14 14 14 14 14 15 15 15 14 13 13 13 13 14 14 14 15 14 13 13 12 12 12 12 13 12 12 12 11 11 11 10 11 11 11 12 13 14 16 18 20 20 19 15 15 18 21 22 22 22 21 19 18 19 18 17 18 20 20 19 18 18 17 17 17 17 17 17 17 17
12 12 12 12 12 13 14 14 13 12 12 12 13 13 14 14 15 15 16 16 16 15 16 16 15 14 15 14 14 15 16 16 16 15 15 15 14 14 14 14 15 15 14 12 11 11 11 11 11 11 12 13 15 17 17 17 16 15 12 11 14 19 21 21 23 23 22 22 20 16 16 18 20 21 21 21 21 19 18 18 18 17 16 16 17
11 11 12 12 11 11 12 13 13 12 13 13 12 12 13 14 15 15 16 17 17 17 17 17 17 17 17 16 15 16 17 17 17 17 17 17 18 18 18 18 17 17 15 13 12 11 11 11 12 12 12 12 13 14 14 13 14 17 17 15 15 17 17 18 22 24 23 22 19 17 18 18 18 21 24 24 23 22 20 18 16 15 15 15 16
13 14 14 15 13 11 12 12 12 12 13 13 13 12 12 13 13 14 15 17 18 19 19 19 19 19 18 18 19 20 21 20 19 19 18 18 18 19 19 19 19 18 16 14 13 12 12 12 13 13 13 14 15 15 14 15 16 17 16 15 14 16 15 15 18 22 23 22 18 18 22 21 19 23 25 23 22 21 20 19 17 15 14 14 14
14 14 14 15 14 13 12 12 12 12 11 12 14 14 13 12 12 11 13 15 16 18 19 19 20 20 18 18 18 19 21 21 21 20 20 19 18 18 18 18 19 19 18 16 16 14 13 13 14 14 14 16 18 18 17 17 16 15 15 15 14 15 14 12 14 17 21 25 22 20 23 24 22 24 26 24 22 20 19 20 19 16 15 14 13
13 12 12 13 14 13 12 12 10 8 8 12 15 15 15 14 12 11 11 11 12 14 15 16 18 19 19 18 16 15 17 20 22 21 21 21 19 18 18 17 17 17 18 18 19 18 16 15 15 16 16 17 18 19 19 18 17 17 17 16 15 14 13 13 13 15 18 25 26 22 21 22 20 21 24 24 21 19 20 21 20 17 15 14 13
13 11 10 11 12 12 10 9 7 4 5 9 11 12 13 13 13 12 11 11 11 12 14 15 16 17 19 20 19 18 17 20 22 22 21 21 20 19 18 18 17 17 17 17 18 19 19 18 17 18 20 19 19 21 23 23 22 20 18 18 16 15 14 13 14 17 21 25 25 20 19 20 18 17 19 21 20 20 21 21 19 17 17 15 14
9 9 9 9 10 10 9 8 6 4 6 9 9 9 10 11 11 12 12 11 11 11 13 15 15 16 18 18 19 20 20 20 21 21 19 19 19 19 19 18 18 19 19 18 18 18 19 20 20 22 23 23 22 23 24 24 23 21 19 19 18 17 18 18 20 23 26 26 23 18 17 17 16 14 17 19 20 19 20 21 19 18 18 17 15
4 5 6 6 6 7 7 7 5 5 9 13 12 12 13 12 11 11 11 11 11 11 12 13 13 15 16 16 17 18 19 19 19 18 17 15 16 17 18 18 18 18 19 19 18 17 18 19 19 21 22 22 22 22 21 20 21 22 21 21 21 21 22 22 22 22 22 21 18 14 14 16 15 14 18 19 17 16 18 20 21 19 18 17 15
2 2 2 2 3 4 4 5 5 5 7 10 12 13 14 14 13 12 11 11 11 12 12 12 13 13 13 14 14 15 16 17 16 15 14 13 14 15 16 17 17 16 18 20 20 19 19 20 20 21 22 23 23 22 20 19 19 21 21 19 19 20 19 17 16 17 17 17 15 13 15 18 16 16 19 19 16 17 18 20 20 20 18 15 13
7 7 6 5 3 3 3 5 6 5 2 2 4 6 8 9 9 9 9 10 10 11 11 12 13 13 13 13 13 14 14 14 14 14 13 12 14 15 15 16 15 16 18 18 18 21 23 23 24 25 26 26 25 23 21 19 18 19 21 21 18 17 16 14 15 18 19 19 17 14 15 18 17 16 19 19 17 17 18 18 16 16 16 14 13
14 13 11 10 8 7 7 7 7 5 5 4 3 3 3 3 3 3 4 6 6 7 7 8 9 10 11 12 13 13 13 12 13 14 13 13 14 15 14 14 14 16 17 15 15 21 25 26 26 26 26 26 25 24 22 21 19 18 22 24 21 17 16 15 17 19 20 21 18 12 12 17 18 17 18 20 19 18 17 15 12 13 17 17 16
14 13 11 11 9 7 7 7 5 4 4 2 2 3 4 3 2 1 1 2 3 4 5 5 6 6 7 8 9 10 10 11 12 13 12 12 13 13 13 12 13 15 14 13 17 22 24 24 25 25 24 25 25 25 24 23 21 20 22 25 23 19 17 17 17 18 17 18 16 11 11 17 19 17 17 18 17 16 15 14 13 14 16 18 18
Wind_Direction
106 107 110 110 111 116 114 109 106 105 104 99 95 88 78 70 66 64 61 59 56 53 50 51 47 44 46 44 40 37 35 34 33 32 28 21 10 354 352 347 343 342 338 336 321 308 310 316 321 326 326 321 319 317 316 316 323 330 325 325 328 328 328 326 324 324 324 325 327 327 324 323 323 321 321 318 317 316 311 308 305 302 298 295 293
104 108 108 109 111 112 108 104 103 102 97 90 87 77 69 65 63 63 55 53 52 47 47 52 54 48 44 46 43 39 36 34 33 30 26 23 18 4 360 358 354 342 330 329 327 316 309 305 307 311 312 313 313 312 313 312 318 323 319 318 318 318 319 318 319 320 321 322 323 323 322 322 322 321 321 319 317 315 310 306 303 301 299 298 297
109 112 112 112 113 112 109 104 99 99 94 85 81 72 70 69 65 60 50 49 47 43 47 51 53 49 44 44 43 40 36 36 34 29 23 19 23 23 18 17 13 4 352 342 340 336 333 327 320 317 315 315 313 309 310 311 314 315 318 320 321 322 321 322 323 323 324 324 325 328 328 327 327 325 323 321 318 313 310 308 306 304 303 301 299
115 117 118 118 119 116 111 107 103 101 96 87 81 75 73 70 66 58 49 47 44 42 45 48 48 41 39 39 34 33 28 28 28 20 18 16 24 31 33 34 31 27 24 15 7 2 0 358 352 350 348 344 339 334 330 329 329 331 339 344 345 344 342 343 342 341 339 337 338 339 338 337 334 332 329 325 321 317 316 315 313 308 303 299 295
117 119 121 122 122 120 115 111 110 105 100 91 81 77 70 66 60 52 47 46 46 43 41 44 38 27 31 33 24 22 14 13 10 1 4 4 15 26 34 38 36 33 32 29 24 19 18 16 12 9 7 3 0 359 358 358 359 0 2 1 0 359 356 356 353 351 349 347 347 345 343 340 336 334 331 327 326 326 324 319 314 308 302 300 297
119 121 121 122 121 122 121 116 114 107 100 93 81 74 66 63 58 49 44 45 44 38 34 35 26 17 19 18 12 10 4 359 352 348 346 343 359 15 23 28 30 31 31 31 28 25 24 21 19 15 12 11 8 8 8 8 8 7 6 4 2 360 358 356 355 354 352 350 348 346 342 337 334 332 330 331 334 333 325 318 315 311 309 307 304
120 123 123 123 119 121 124 118 116 106 100 99 86 76 70 68 59 51 46 45 40 31 28 24 18 14 10 7 4 1 358 351 348 344 335 338 351 2 9 13 16 22 25 29 28 26 25 21 17 14 11 10 8 7 7 7 5 3 1 358 355 352 350 348 347 347 347 348 345 342 337 333 332 331 334 337 335 330 322 321 323 323 323 317 314
117 121 122 121 120 120 120 119 116 107 106 101 88 78 76 71 57 50 46 42 39 33 28 19 17 14 8 7 2 358 354 349 351 344 336 349 355 354 1 5 7 13 19 24 23 23 23 19 15 10 8 6 5 5 4 3 2 359 356 353 349 345 341 337 335 336 338 339 337 336 335 333 334 336 340 336 330 329 327 328 330 331 328 320 319
117 119 119 119 121 121 118 121 118 112 107 91 85 83 78 69 54 46 43 40 37 35 29 22 18 12 8 8 2 3 1 353 356 359 7 17 11 358 355 358 8 13 13 13 13 15 15 14 9 4 3 2 1 1 2 3 1 359 357 352 347 342 339 336 331 330 330 332 334 338 341 342 346 347 343 335 333 335 334 334 334 332 325 320 323
124 123 122 123 127 128 126 127 123 117 107 92 87 84 79 70 54 44 42 41 36 31 26 19 11 2 360 1 355 357 357 358 6 16 22 20 12 8 1 1 8 9 10 8 7 10 10 7 5 3 3 2 1 2 4 6 5 3 359 354 352 351 351 349 343 338 338 343 349 355 359 2 1 355 346 341 343 345 345 344 342 341 335 328 327
132 131 130 136 140 141 138 135 135 128 109 93 84 75 74 70 60 50 43 40 32 23 18 13 5 357 354 344 334 335 338 346 359 19 29 19 10 11 2 1 11 10 10 10 8 11 11 9 5 5 8 7 8 9 9 11 9 6 4 2 3 4 5 4 1 1 4 9 13 15 12 9 2 354 350 348 352 356 355 355 354 354 347 340 335
139 139 139 144 147 147 152 157 150 135 111 87 77 73 71 68 67 60 49 40 28 19 13 7 2 359 355 346 329 324 326 331 331 346 16 20 15 13 354 349 9 14 9 8 9 12 15 16 14 16 19 21 19 16 15 15 11 8 11 13 13 15 18 19 21 24 26 24 21 18 11 5 360 356 356 358 3 6 4 5 6 5 1 358 351
150 147 144 143 145 146 158 166 154 139 121 95 81 79 73 70 64 52 48 43 31 20 10 1 359 1 1 4 4 355 4 358 319 299 300 310 337 9 10 355 2 7 4 7 13 18 23 26 28 30 30 29 25 23 22 18 13 12 18 21 20 24 29 31 34 32 29 24 18 14 9 5 4 4 7 12 16 14 11 14 17 18 16 10 1
158 156 153 146 143 146 157 161 152 143 129 99 80 78 76 72 58 40 39 42 35 22 14 7 6 5 355 1 23 38 51 32 356 321 295 271 274 318 357 354 334 345 360 11 18 21 25 29 35 36 34 31 27 27 24 19 16 18 24 26 26 30 35 38 37 32 27 22 17 14 12 11 12 13 17 20 21 18 16 21 26 26 22 15 9
163 164 163 154 151 150 155 159 158 153 140 109 73 80 86 73 54 42 36 38 41 27 18 11 7 3 348 2 19 22 53 31 14 17 2 294 257 274 307 333 316 346 11 15 16 20 24 31 38 35 31 27 24 23 20 18 18 21 27 30 31 36 38 38 37 32 27 22 19 18 18 18 19 21 22 23 22 20 21 25 26 24 22 18 13
168 168 168 167 171 165 153 158 167 167 158 136 95 99 102 77 55 49 42 37 42 31 18 12 11 10 358 3 355 351 41 14 2 18 27 32 19 298 288 308 322 19 34 16 4 10 15 20 25 22 18 15 11 12 14 15 18 22 28 32 35 39 41 40 40 37 32 28 24 22 23 23 23 23 22 23 22 21 24 25 24 23 21 19 15
177 171 174 182 190 185 165 162 174 175 166 150 113 121 115 87 68 57 47 43 40 29 25 21 23 27 18 360 350 25 30 358 355 25 35 44 45 28 34 24 26 59 50 26 4 1 358 358 1 3 5 4 4 8 11 14 18 23 28 32 35 41 42 42 41 40 36 32 28 25 25 24 23 22 21 21 21 22 23 23 23 22 21 20 17
190 184 185 191 193 191 179 177 188 184 171 157 125 128 124 99 81 63 52 53 47 35 36 33 32 38 33 12 345 346 345 346 354 13 26 41 43 42 50 53 73 76 51 32 15 6 356 350 354 357 5 9 7 8 11 16 20 24 28 30 33 37 40 41 39 37 35 32 29 25 24 23 21 20 19 19 19 20 22 22 22 21 22 21 18
195 197 196 193 194 193 193 194 194 189 177 160 142 138 143 130 99 80 69 64 55 44 39 38 37 39 35 23 360 345 328 351 358 348 4 29 30 37 43 45 61 60 40 23 6 2 354 351 355 359 8 13 12 10 6 10 16 22 27 28 29 31 33 35 33 31 29 28 26 23 22 21 20 19 17 17 17 17 19 20 20 20 22 23 19
193 196 194 189 191 194 197 199 196 192 184 173 175 173 167 157 123 98 85 73 60 50 44 37 37 38 37 39 46 60 74 33 12 3 335 352 18 34 34 39 56 50 35 25 7 2 357 354 355 358 6 11 12 11 4 3 10 17 24 24 24 24 23 24 21 19 18 18 19 19 18 17 17 17 17 16 16 15 15 17 18 18 22 24 21
190 192 193 190 191 194 198 199 195 191 188 189 197 194 188 171 145 119 97 81 59 49 47 40 37 38 40 46 51 53 60 37 18 16 351 341 11 22 20 27 46 44 32 23 15 14 6 355 352 357 5 8 8 9 6 6 13 18 22 21 20 18 16 15 11 8 6 5 7 11 13 12 12 14 15 15 14 13 12 14 15 16 20 23 22
190 190 191 191 191 194 197 195 192 192 193 197 206 207 202 187 170 156 125 97 55 36 33 34 36 38 42 47 47 37 35 29 22 22 22 344 338 360 15 17 27 32 24 21 25 24 15 359 352 356 4 8 7 9 13 17 27 29 22 17 17 15 12 9 6 3 1 358 357 359 3 5 5 7 9 11 12 11 10 11 13 12 15 21 23
189 188 188 189 191 194 194 193 193 194 194 197 205 206 203 199 195 192 183 173 249 338 337 352 12 21 32 40 38 29 29 28 24 21 19 10 336 353 19 14 13 22 20 27 31 21 14 5 356 357 4 10 9 11 21 26 28 25 15 8 6 6 4 0 358 357 357 355 352 351 353 357 358 359 0 3 6 8 7 8 8 8 10 16 21
192 191 190 190 191 192 192 194 195 194 194 196 197 196 198 204 206 209 217 219 237 275 289 296 312 322 339 2 6 5 12 12 15 19 21 21 354 352 17 12 5 17 20 29 29 18 16 10 1 1 7 16 8 7 17 14 6 357 353 351 349 348 349 347 346 347 348 349 348 347 347 348 350 351 351 353 357 1 2 4 3 3 5 10 16
197 197 196 194 194 194 194 195 196 195 193 192 191 194 199 206 211 221 235 237 243 264 273 274 283 292 299 310 316 321 334 348 356 5 15 20 1 357 12 2 351 14 19 21 17 19 22 12 5 2 9 45 336 338 347 345 337 332 332 334 335 334 334 333 332 333 337 338 338 340 341 342 343 344 345 345 346 350 355 358 359 358 359 4 10
207 204 201 199 199 199 197 196 196 195 195 193 192 196 203 211 219 227 242 248 252 262 268 268 275 283 283 284 289 298 307 318 328 334 344 356 358 360 358 340 329 1 19 17 10 8 10 9 10 7 6 2 317 318 327 334 330 327 329 329 329 327 324 322 319 321 325 326 327 329 332 334 335 336 338 339 338 340 344 350 354 354 354 358 3
217 212 207 203 203 202 202 200 198 197 199 199 199 206 214 222 228 234 245 253 257 264 265 266 273 276 274 271 273 279 292 302 306 313 324 333 343 353 350 339 328 336 352 2 358 356 357 358 9 22 13 357 339 328 324 329 328 326 329 330 328 325 322 319 316 317 319 318 317 318 322 326 327 327 329 330 331 331 333 339 345 349 350 352 356
228 220 215 212 210 209 212 214 211 208 207 206 209 217 223 229 236 242 249 254 260 264 261 265 273 273 268 264 264 269 279 291 296 301 307 317 328 332 330 334 331 331 334 334 337 345 352 346 344 10 3 349 340 332 326 326 324 324 328 329 327 326 327 325 321 317 314 313 313 314 316 320 321 320 321 322 323 323 325 329 335 341 344 346 350
239 231 223 220 220 221 226 227 223 221 221 221 223 227 231 236 244 249 253 259 266 266 262 265 271 271 269 267 266 269 273 280 289 294 292 298 315 318 310 304 297 309 317 320 325 324 330 337 326 320 338 341 336 330 329 327 326 329 333 333 332 330 328 326 320 315 312 312 315 317 318 320 321 320 318 317 318 318 319 321 327 333 336 339 342
243 239 231 226 227 234 241 242 238 233 232 233 235 238 240 244 251 256 259 264 271 272 269 269 272 274 275 273 273 274 275 277 280 284 283 284 295 306 305 298 285 283 291 296 303 305 311 323 322 317 328 336 333 327 327 327 329 333 335 334 334 331 329 328 325 323 321 321 323 324 324 324 324 324 322 319 315 314 315 316 320 326 330 333 336
243 237 233 232 236 242 247 250 250 247 244 243 242 244 246 251 257 259 261 267 274 278 277 277 278 279 279 279 277 279 281 279 277 279 281 281 285 292 296 302 299 287 281 281 282 292 301 309 315 318 322 327 328 325 322 322 325 331 332 331 330 329 330 331 332 332 331 329 329 330 330 328 325 323 323 323 317 312 313 314 315 320 324 327 331
245 235 233 236 242 246 245 244 247 252 254 250 249 252 254 257 260 259 261 268 274 279 281 282 284 284 284 282 280 282 285 284 279 278 279 279 280 285 290 296 298 291 281 272 274 284 290 298 307 312 319 325 327 326 324 322 324 328 329 329 329 330 330 330 330 332 332 330 329 331 331 329 327 323 320 320 319 314 313 314 314 316 320 323 327
249 243 239 240 245 246 245 244 249 257 259 255 255 259 262 265 268 268 267 272 276 277 279 282 283 283 283 282 281 283 287 288 284 278 278 280 278 279 287 293 296 294 285 275 280 289 293 296 303 306 314 321 321 321 323 322 321 323 325 326 327 327 327 327 327 329 332 329 327 328 328 325 324 323 319 315 315 315 317 318 317 316 318 321 323
251 250 247 246 248 248 247 250 253 256 259 260 263 269 271 273 272 269 268 272 276 278 279 280 281 282 283 283 283 285 286 289 290 283 279 281 283 284 289 295 300 300 294 287 288 293 297 301 305 307 312 317 317 316 319 320 321 325 327 328 327 325 326 329 328 328 333 333 328 327 326 322 320 320 318 312 310 313 317 320 320 319 319 320 321
254 254 251 250 253 254 253 256 256 254 256 258 263 272 276 276 273 267 266 269 271 273 275 278 279 280 281 282 283 284 284 288 292 290 285 284 286 289 291 294 297 300 300 299 296 294 299 304 309 311 315 317 315 316 321 325 326 329 331 331 331 328 329 332 329 327 335 338 334 331 328 323 319 320 319 314 310 313 318 321 323 323 322 320 320
249 252 252 253 257 259 259 261 262 261 261 260 262 266 271 273 272 271 271 273 273 272 274 277 278 278 278 280 283 283 284 287 290 291 289 288 289 291 293 294 295 295 296 299 300 297 297 302 307 311 315 317 319 321 326 329 329 329 329 331 332 332 332 333 327 323 332 339 339 337 335 331 324 320 320 319 315 313 318 324 327 329 327 323 319
243 246 248 251 256 258 261 265 267 267 267 266 265 266 268 272 274 273 273 276 277 277 278 279 280 279 278 277 281 283 283 285 288 289 289 291 294 294 296 298 298 298 297 298 301 299 293 295 300 307 313 316 320 325 328 329 328 327 329 332 333 333 335 336 328 321 326 331 333 335 336 337 333 325 319 316 315 316 320 325 326 329 331 329 322
245 245 246 248 254 258 261 266 270 270 270 270 271 271 270 271 274 276 275 276 278 279 279 280 279 279 278 278 281 283 283 283 284 287 290 293 294 292 294 300 301 301 299 297 299 300 294 291 294 301 307 312 316 322 327 328 326 325 327 330 332 331 333 334 331 327 324 322 325 328 329 333 334 331 325 315 311 312 314 317 318 320 326 330 327
245 246 247 249 255 260 262 264 266 268 271 274 276 277 274 272 274 277 277 276 277 278 279 279 277 275 274 277 280 281 283 285 285 286 289 291 292 291 292 297 300 300 300 297 296 296 293 292 293 295 300 306 310 314 320 325 326 325 324 324 326 327 329 330 330 329 327 325 326 326 324 326 327 329 328 322 315 311 308 306 307 310 316 323 326
243 245 247 248 252 256 257 259 261 263 270 277 280 281 279 277 276 277 279 279 278 278 280 281 279 278 277 276 276 277 282 287 288 288 287 287 289 290 292 296 299 299 298 296 295 295 294 294 295 295 296 300 305 309 314 318 320 319 315 308 309 316 320 324 326 328 327 328 329 323 320 323 323 323 325 324 324 322 316 308 302 303 308 313 319
241 242 246 248 250 250 251 256 258 259 266 273 278 283 285 283 281 279 281 284 282 280 283 284 282 283 284 281 277 279 285 290 291 290 289 289 290 289 290 294 296 297 295 293 291 291 291 291 291 293 293 293 298 303 304 304 306 309 311 309 304 306 309 310 317 324 325 325 324 318 318 320 317 319 322 323 325 329 328 322 314 309 309 308 310
240 244 249 251 250 250 249 251 251 251 257 264 269 277 281 282 281 278 280 286 288 286 285 286 286 286 285 284 285 289 293 293 292 292 293 294 293 291 290 291 290 291 290 289 288 286 287 289 290 292 292 292 295 298 297 298 301 304 306 305 301 304 306 303 309 318 321 322 320 312 315 318 314 316 321 320 322 327 328 329 327 321 314 310 307
239 243 247 248 247 247 247 248 247 244 245 252 258 264 269 271 272 272 274 281 286 287 285 284 285 286 285 285 288 293 297 298 298 298 298 298 297 296 295 293 290 288 284 282 283 283 282 282 285 287 289 289 292 296 297 298 300 301 303 303 299 299 302 300 302 310 316 320 318 309 310 316 315 315 318 319 322 326 326 326 328 325 320 314 307
240 238 239 242 243 242 243 245 247 245 241 247 254 259 263 267 269 268 266 266 269 275 278 279 282 286 287 287 287 287 291 296 300 302 302 302 303 302 299 296 292 287 283 278 277 278 278 280 282 283 282 283 286 291 294 297 300 302 301 300 296 293 293 294 295 298 307 315 315 307 305 311 311 308 312 316 320 322 321 320 323 324 323 319 311
238 236 237 239 239 237 237 238 239 242 245 252 258 261 263 268 271 271 271 269 264 264 269 273 278 283 287 290 291 290 289 294 300 303 304 305 306 307 304 301 297 294 290 285 279 276 274 273 274 276 278 280 281 286 293 297 297 297 296 296 296 293 291 289 288 293 303 309 308 301 298 303 303 298 300 308 312 313 315 316 317 321 324 322 315
231 232 234 237 240 240 242 246 249 251 254 258 263 263 262 266 271 275 276 276 274 271 272 275 277 279 284 287 289 291 292 294 299 302 303 303 304 305 303 299 297 296 296 294 290 286 280 274 270 272 279 282 282 286 293 296 293 289 288 290 291 290 289 290 292 296 302 305 302 294 290 296 299 291 290 300 306 306 309 311 310 314 321 320 315
215 225 225 229 236 237 238 242 245 250 257 262 264 264 264 264 266 273 277 276 276 276 277 279 279 280 281 282 283 287 290 292 294 297 299 298 296 295 294 292 290 291 292 291 290 288 287 284 278 275 279 285 286 287 290 291 289 288 288 289 290 290 290 292 294 295 297 299 294 281 281 293 297 290 289 297 301 298 303 308 307 310 315 314 310
181 208 213 216 224 225 224 219 210 220 252 267 268 265 264 263 263 268 273 274 273 271 270 273 276 277 278 279 280 283 285 288 291 292 292 289 285 284 283 285 286 285 285 288 290 291 292 293 291 289 288 290 292 291 289 285 283 285 287 287 286 286 285 285 287 289 293 296 287 270 277 292 296 290 289 295 295 292 297 302 302 307 313 311 307
106 107 103 105 124 140 142 153 165 170 152 355 305 279 272 266 261 263 269 272 272 269 268 269 270 272 273 274 277 279 282 285 286 285 282 277 276 276 275 279 281 279 282 286 291 294 295 294 294 294 293 292 292 292 289 285 282 283 281 277 274 275 276 276 283 290 295 297 291 277 278 289 294 292 291 294 293 289 291 294 294 303 312 312 309
99 98 98 100 104 102 102 116 131 128 101 68 19 360 351 313 272 261 267 274 275 272 273 274 273 273 273 272 272 271 273 275 275 276 275 271 271 273 274 277 278 279 283 288 289 292 294 294 294 293 293 293 292 291 288 283 281 278 274 270 270 273 272 269 277 288 293 294 289 273 269 287 298 299 296 298 296 292 292 289 286 299 310 311 310
94 93 95 99 100 95 90 101 111 104 93 70 354 2 8 5 24 38 350 330 316 303 298 292 285 283 280 278 276 271 268 272 275 276 276 274 274 276 276 276 276 279 286 291 292 295 297 296 296 297 297 296 296 295 292 288 285 279 273 271 270 268 265 267 274 283 290 293 288 267 265 290 300 299 298 300 298 297 297 286 276 287 301 305 306
Height
878 879 880 880 881 883 884 885 885 886 886 886 886 886 886 886 886 886 886 886 886 887 887 887 887 888 888 888 888 888 888 889 889 889 889 889 889 889 889 889 889 889 890 889 889 889 889 889 889 888 888 888 888 887 887 886 886 886 885 885 885 884 884 883 883 882 881 881 880 879 879 878 877 877 876 875 874 874 873 872 871 870 870 869 869
878 879 880 880 881 883 884 885 885 886 886 887 887 887 887 887 886 886 887 887 887 887 887 888 888 888 888 888 889 889 889 889 889 889 889 889 889 889 889 889 889 889 889 889 889 889 888 888 888 888 888 888 887 887 887 886 886 885 885 884 884 884 883 883 882 881 881 880 879 878 878 877 876 875 875 874 873 873 872 871 870 869 868 868 867
879 880 881 882 882 883 884 885 886 886 887 887 887 887 887 887 887 887 887 887 888 888 888 888 889 889 889 889 889 889 889 889 890 890 890 890 889 889 889 889 889 889 889 888 888 888 888 888 888 887 887 887 887 886 886 885 885 885 884 884 883 883 882 882 881 880 880 879 878 877 876 876 875 874 873 873 872 871 870 870 869 868 867 866 866
880 881 882 883 884 884 885 886 886 887 887 887 887 887 887 887 887 888 888 888 888 888 888 889 889 889 889 889 889 890 890 890 890 890 890 890 889 889 889 889 889 889 888 888 888 888 887 887 887 887 886 886 886 885 885 885 884 884 883 883 882 882 881 881 880 879 879 878 877 876 875 875 874 873 872 871 870 869 869 868 867 867 866 865 864
882 883 883 884 885 885 886 886 887 887 887 888 888 888 888 888 888 888 888 888 889 889 889 889 890 889 889 890 890 890 890 890 890 890 890 890 890 889 889 889 889 889 888 888 888 887 887 887 887 886 886 886 885 885 884 884 884 883 883 882 882 881 881 880 879 879 878 877 876 875 875 874 873 872 871 870 869 868 867 867 866 865 864 863 862
883 884 884 885 885 886 886 887 887 887 888 888 888 888 888 889 889 889 889 889 889 889 889 890 890 890 890 890 890 890 890 890 890 890 890 890 890 889 889 889 889 889 888 888 888 887 887 887 887 886 886 885 885 885 884 884 883 883 882 882 881 881 880 880 879 878 877 876 876 875 874 873 872 871 870 869 868 867 866 865 864 863 862 861 860
884 884 885 885 886 886 887 887 888 888 888 889 889 889 889 889 889 889 890 890 890 890 890 890 890 890 890 890 890 890 890 890 890 890 890 890 889 889 889 889 889 889 888 888 888 888 887 887 887 886 886 885 885 884 884 883 883 882 882 881 881 880 879 879 878 877 876 876 875 874 873 872 871 870 869 868 867 866 865 864 863 861 861 859 858
884 885 885 886 886 887 887 888 888 889 889 889 889 889 889 890 890 890 890 890 890 890 890 890 890 890 890 890 890 890 890 890 890 890 890 889 889 889 889 889 889 889 888 888 888 888 887 887 887 886 885 885 884 884 884 883 883 882 881 881 880 879 878 878 877 876 875 874 874 873 872 871 870 869 868 867 866 865 864 863 861 860 859 858 857
884 885 885 886 887 887 888 888 889 889 889 889 890 890 890 890 890 890 890 890 891 891 890 890 890 890 890 890 890 890 890 890 890 889 889 889 889 889 889 889 889 888 888 888 888 888 887 887 886 886 885 885 884 884 883 883 882 881 881 880 879 878 877 876 876 875 874 873 872 872 871 870 869 868 867 866 865 864 863 861 860 859 858 857 855
884 885 886 886 887 888 888 889 889 889 890 890 890 891 891 891 891 891 891 891 891 891 891 891 891 890 890 890 890 890 890 889 889 889 889 889 889 889 889 889 888 888 888 888 888 888 887 887 886 886 885 885 884 883 883 882 882 881 880 879 878 877 876 875 874 874 873 872 872 871 870 869 868 867 866 865 864 863 862 860 859 858 857 856 854
884 885 886 887 887 888 889 889 889 890 890 891 891 891 891 891 891 891 891 891 891 891 891 891 891 891 890 890 890 889 889 889 889 889 889 889 889 889 889 889 888 888 888 888 887 887 887 886 886 885 885 884 884 883 883 882 881 880 879 878 877 876 875 874 874 873 872 872 871 870 869 869 868 867 866 864 863 862 861 860 859 857 856 855 853
885 886 886 887 887 888 889 889 890 890 891 891 892 892 892 892 892 892 892 892 892 892 891 891 891 891 890 890 889 889 889 889 889 888 888 888 888 889 888 888 888 888 888 888 887 887 887 886 886 885 885 884 884 883 883 882 881 880 879 878 876 875 875 874 873 873 872 871 870 870 869 868 867 866 865 864 863 862 861 860 858 857 855 854 852
885 886 887 887 888 888 889 889 890 890 891 891 892 892 892 892 892 892 892 892 892 892 892 892 891 890 890 889 889 888 888 888 888 888 888 888 888 888 888 888 888 888 888 887 887 887 886 886 886 885 885 884 884 883 883 882 881 880 879 878 876 875 875 874 873 872 872 871 870 869 868 867 866 865 864 863 863 862 860 859 858 856 855 853 852
886 886 887 888 888 888 889 889 890 891 891 892 892 892 893 893 893 893 893 893 893 893 892 892 891 891 890 889 889 889 888 888 888 888 888 888 888 888 888 888 888 888 888 887 887 886 886 886 886 885 885 884 884 883 883 882 881 880 879 878 876 875 875 874 873 872 872 871 870 869 868 867 866 865 864 863 862 861 860 859 857 856 854 853 851
886 886 887 888 888 888 889 890 890 891 892 892 892 893 893 893 894 894 893 893 893 893 893 892 892 892 891 891 891 890 889 888 888 888 887 887 888 888 888 888 888 888 887 887 887 886 886 886 886 885 885 884 884 883 883 882 881 880 879 878 877 876 875 874 873 873 872 871 870 869 868 867 866 865 864 863 862 861 860 858 857 856 854 852 850
886 886 887 888 888 889 889 890 891 891 892 892 892 893 893 894 894 894 894 894 893 893 893 893 893 893 892 892 891 892 893 890 888 888 887 887 887 887 887 887 888 887 887 887 887 887 886 886 886 885 885 884 884 883 883 882 881 880 879 878 877 876 875 875 874 873 872 871 871 870 868 867 866 865 864 863 862 861 859 858 857 855 853 852 850
886 886 887 888 888 889 890 890 891 891 892 892 892 893 893 894 894 894 894 894 894 894 894 894 894 894 893 894 893 895 895 891 889 889 888 887 888 887 887 887 887 887 887 887 887 887 886 886 886 885 885 884 884 883 883 882 881 880 879 878 878 877 876 875 874 874 873 872 871 870 869 867 866 865 864 863 862 861 859 858 857 855 853 852 849
886 887 887 888 888 889 890 890 891 891 892 892 892 893 893 894 894 895 895 895 895 895 895 895 894 894 894 894 895 896 895 891 891 892 889 888 888 888 887 887 887 887 887 887 887 886 886 886 886 885 885 884 883 883 883 882 881 880 880 879 878 877 877 876 875 874 873 872 871 870 869 868 866 865 864 863 862 861 860 858 857 855 854 851 849
885 886 887 888 888 889 890 890 891 891 891 892 893 893 894 894 895 895 895 895 895 895 895 895 895 895 895 895 894 895 894 893 893 893 892 890 888 888 888 887 887 887 887 887 887 886 886 886 886 885 885 884 883 883 883 882 881 880 880 879 879 878 877 876 876 875 874 873 872 870 869 868 867 866 864 863 862 861 860 859 857 855 854 852 849
885 886 887 888 888 889 889 890 890 891 891 892 893 893 894 894 895 895 895 896 896 896 896 896 896 896 896 895 895 894 894 894 893 893 894 893 890 888 888 888 887 887 887 887 886 886 886 886 886 885 885 884 883 883 882 882 881 880 880 879 879 878 877 877 876 875 874 873 872 870 869 868 867 866 864 863 862 861 860 859 857 855 854 852 850
885 886 887 887 888 889 889 889 890 890 891 892 893 893 894 894 895 895 896 896 896 897 897 897 897 897 896 896 896 895 895 894 894 893 892 893 892 888 888 888 887 887 887 887 886 886 886 885 885 885 885 884 883 883 882 882 881 881 880 879 878 878 877 877 876 875 874 873 872 870 869 868 867 866 864 863 862 861 860 858 857 855 854 852 850
885 886 886 887 888 888 889 889 890 890 891 892 893 894 894 895 895 896 896 896 897 897 897 898 897 897 897 897 896 896 895 894 894 893 892 893 893 889 888 888 887 887 887 887 886 886 885 885 885 885 884 884 883 883 882 882 881 881 880 879 878 878 877 876 875 874 873 872 871 870 869 868 867 866 864 863 862 861 860 858 857 855 854 852 850
885 885 886 887 888 888 889 889 889 890 891 892 893 894 894 895 895 896 896 897 897 897 898 898 898 898 897 897 897 896 896 895 894 894 893 892 892 890 889 889 888 888 887 887 886 886 885 885 885 884 884 883 883 883 882 882 881 880 879 879 878 877 876 876 875 874 873 872 871 870 869 867 866 865 864 863 862 861 859 858 857 855 853 852 850
884 885 886 887 887 888 888 889 889 890 890 891 892 893 894 895 895 896 897 897 898 898 898 898 898 898 898 897 897 897 896 896 895 895 894 893 893 891 889 890 889 888 888 887 886 886 885 885 884 884 884 883 883 882 882 881 880 880 879 878 877 877 876 875 874 873 872 871 870 869 868 867 865 864 863 862 861 860 859 858 856 855 853 852 851
884 885 886 886 887 887 888 888 889 889 890 891 892 893 894 895 895 896 897 897 898 898 898 898 898 898 898 898 898 897 897 897 896 895 894 894 893 892 891 890 889 888 888 887 886 886 885 885 884 884 883 883 882 882 881 881 880 879 878 877 876 876 875 874 873 872 871 870 869 868 867 866 864 863 862 861 860 859 858 857 856 855 853 852 851
884 885 885 886 886 887 887 888 888 889 890 891 891 892 893 894 895 896 897 897 898 898 898 898 898 898 898 898 898 898 897 897 896 896 895 894 893 892 892 891 889 888 888 888 887 886 885 885 884 883 883 882 882 881 881 880 880 878 878 877 875 875 874 873 872 871 870 869 868 867 866 865 863 862 861 860 859 858 858 856 856 854 853 852 851
883 884 885 885 886 887 887 888 888 889 890 891 891 892 893 894 895 896 896 897 897 897 898 898 898 898 898 898 898 898 898 897 897 896 895 894 894 893 893 892 891 889 887 887 887 886 885 885 884 884 883 882 882 881 880 880 879 878 877 876 875 874 873 872 871 870 869 868 867 866 865 864 862 861 860 859 858 857 857 856 855 854 853 851 850
883 883 884 885 886 886 887 887 888 889 890 890 891 892 893 894 895 895 896 896 897 897 897 897 897 898 898 898 898 897 897 897 897 896 895 895 894 894 893 893 893 892 889 888 887 886 886 885 884 884 883 882 882 881 880 879 879 877 876 875 874 873 872 871 870 869 868 866 865 864 863 862 861 860 859 859 858 857 856 855 854 853 852 851 850
882 883 884 885 885 886 887 887 888 889 890 890 891 892 893 894 894 895 896 896 896 896 897 897 897 897 897 897 897 897 897 897 896 896 895 895 894 894 893 893 893 893 892 891 888 885 885 885 884 884 883 882 882 881 880 879 879 877 876 875 874 873 871 870 869 868 867 865 864 863 862 861 860 859 858 858 857 856 855 854 853 853 852 850 849
882 882 883 884 885 886 886 887 888 889 889 890 891 892 893 893 894 894 895 895 896 896 896 896 896 897 897 897 897 897 896 896 896 896 895 894 894 894 894 893 892 891 891 891 889 886 885 885 884 884 883 882 882 881 880 879 878 877 876 875 874 872 871 870 868 867 866 865 864 862 861 860 859 858 858 857 856 855 854 854 853 852 851 850 849
881 882 883 883 884 885 886 887 887 888 889 890 891 891 892 893 893 894 894 894 895 895 895 895 896 896 896 896 896 896 896 896 895 895 895 894 894 894 893 893 892 892 890 890 889 886 885 885 884 883 883 882 881 881 880 879 878 877 876 875 873 872 870 869 868 867 865 864 863 862 861 860 859 858 857 856 855 855 854 853 852 851 850 849 848
880 881 882 882 883 884 885 886 887 888 889 889 890 891 891 892 892 893 893 893 893 894 894 895 895 895 895 895 896 895 895 895 895 895 894 894 894 893 893 892 892 891 890 890 888 886 885 884 883 883 882 881 880 880 879 878 877 876 875 874 873 871 870 869 867 866 865 864 863 862 860 859 858 857 856 855 854 854 853 852 851 850 849 848 847
879 880 881 881 882 883 884 885 886 887 888 889 889 890 890 891 891 891 892 892 892 893 893 893 894 894 894 895 895 895 895 894 894 894 894 894 893 893 893 892 891 891 890 889 888 886 884 884 883 882 881 880 880 879 878 877 876 875 874 873 871 870 869 868 866 865 864 863 862 860 859 858 857 856 855 854 853 852 852 851 850 849 848 847 846
878 879 880 881 881 882 883 884 885 886 886 887 888 889 889 889 890 890 891 891 891 891 892 892 892 893 893 893 894 894 894 894 893 893 893 893 893 892 892 891 891 890 889 889 888 886 884 883 883 882 881 880 879 878 877 876 875 873 872 871 870 869 868 866 865 864 862 861 860 859 857 856 855 854 853 852 852 851 850 849 848 847 847 846 845
877 878 879 880 881 881 882 883 883 884 885 886 886 887 887 888 888 889 889 890 890 890 891 891 891 892 892 892 892 893 893 893 892 892 892 892 892 891 891 891 890 889 889 888 888 886 885 883 882 882 880 880 878 877 876 875 873 872 871 870 869 868 867 865 864 863 861 860 858 857 856 854 853 852 851 851 850 850 849 848 847 846 845 844 843
876 877 878 879 880 880 881 882 882 883 883 884 885 885 886 886 887 888 888 888 889 889 889 890 890 890 891 891 891 891 891 891 891 891 891 891 891 890 890 890 889 889 888 887 887 886 885 883 882 881 880 878 877 876 875 874 872 871 870 869 868 867 865 864 863 861 860 858 857 856 854 853 852 851 850 849 848 848 847 847 846 845 844 843 842
875 876 877 878 879 879 880 881 881 882 882 883 883 884 884 885 885 886 886 887 887 888 888 888 888 889 889 889 889 889 890 889 889 890 890 890 890 889 889 889 888 888 887 886 885 885 884 882 881 880 879 877 876 875 874 873 871 870 869 868 866 865 864 863 862 861 859 857 856 854 853 852 851 850 849 848 847 846 846 845 844 844 843 842 841
874 875 876 876 877 878 879 879 880 880 881 881 882 882 883 883 884 884 885 885 885 886 886 886 887 887 887 887 887 888 888 888 888 888 888 888 888 888 888 888 887 887 886 885 884 883 882 881 880 878 877 876 875 873 872 872 870 869 868 866 865 864 862 861 860 859 857 856 854 853 852 851 850 848 847 846 846 845 844 844 843 842 842 841 839
872 873 874 875 875 876 877 877 878 878 879 879 880 880 881 881 882 882 883 883 884 884 884 884 885 885 885 885 886 886 886 886 886 887 887 886 886 886 886 886 885 885 885 884 883 882 881 880 879 877 876 875 873 872 871 870 869 868 866 865 863 862 861 859 858 857 855 854 853 851 850 849 848 847 846 845 844 843 842 841 841 840 840 839 838
870 871 872 873 873 874 874 875 876 876 877 877 877 878 879 879 880 880 881 881 882 882 882 882 883 883 883 883 884 884 884 884 884 885 885 885 885 884 884 884 884 883 883 882 882 881 880 879 877 876 874 873 872 871 869 868 867 866 865 864 863 861 859 858 856 855 853 852 851 850 849 848 846 845 844 842 842 841 840 839 838 838 837 837 837
867 868 869 870 871 872 872 873 873 874 874 874 875 875 876 877 878 878 879 879 879 880 880 880 880 880 881 881 881 881 881 882 882 882 882 883 883 882 882 882 882 881 881 881 880 879 878 877 876 874 873 871 870 869 868 867 866 865 864 863 861 859 858 856 854 853 852 850 849 848 847 846 845 843 842 841 840 839 837 836 835 835 834 834 834
865 865 866 867 868 869 870 871 871 871 872 872 872 873 873 874 875 876 876 876 877 877 877 877 878 878 878 878 878 879 879 879 879 879 880 880 880 880 880 880 880 880 879 879 878 877 877 875 874 873 872 870 869 868 867 865 865 863 862 861 859 858 856 854 852 850 850 848 847 846 845 844 843 841 840 839 838 837 836 835 834 833 832 831 831
862 863 864 864 865 867 868 869 869 869 870 870 869 870 870 871 872 873 874 874 874 874 875 875 875 875 876 876 876 876 876 876 876 876 876 877 877 877 877 877 878 878 878 877 876 875 875 873 872 871 870 868 867 866 865 864 863 862 861 860 858 856 855 853 850 849 848 847 845 843 842 841 841 839 837 836 836 835 834 833 832 831 830 829 828
861 861 862 862 863 864 865 866 867 868 868 867 867 867 867 868 869 869 870 871 871 872 872 872 872 873 873 873 874 874 874 873 873 874 874 874 874 874 874 874 874 874 875 875 874 873 873 871 870 869 868 867 865 864 864 863 862 861 859 858 856 855 854 852 850 848 846 845 844 841 839 839 838 836 834 834 833 833 832 831 830 829 828 827 826
859 860 860 861 861 862 863 864 866 867 867 865 865 865 865 865 866 866 867 868 868 869 869 869 870 870 870 871 871 871 871 871 871 871 871 871 871 871 871 871 871 871 871 871 871 871 870 870 869 867 865 865 863 862 862 861 860 859 858 856 855 853 852 850 849 847 845 844 842 839 837 836 836 834 832 831 830 830 829 828 827 827 825 825 824
857 858 859 859 860 861 862 863 864 864 864 863 863 863 862 862 863 863 864 865 865 866 866 867 867 868 868 868 868 868 868 868 868 868 868 869 868 868 868 867 867 867 867 867 867 867 867 867 866 864 863 862 861 860 859 859 858 857 856 854 853 851 849 848 846 844 842 841 840 838 835 833 833 832 829 828 828 826 826 825 824 824 823 822 822
857 857 857 858 858 859 860 862 862 862 861 860 861 861 860 860 860 861 861 862 862 863 864 864 865 865 865 866 866 865 865 865 866 866 866 866 866 865 865 864 864 864 864 863 863 863 863 863 862 861 860 859 858 857 857 856 855 854 853 852 850 848 846 844 843 841 839 838 838 836 833 831 831 830 827 826 825 824 823 822 821 821 821 820 819
856 857 857 857 858 858 859 860 860 860 859 859 859 858 858 858 858 858 859 859 860 860 861 861 862 862 863 863 863 863 863 863 863 863 863 863 863 862 862 862 862 861 861 860 860 860 860 859 858 857 856 855 855 854 853 853 852 851 851 849 848 846 844 842 840 839 837 836 836 835 832 829 829 828 824 823 822 820 820 819 818 818 817 817 817
855 856 856 856 857 857 858 858 858 858 858 858 858 857 856 856 855 856 856 857 858 858 858 859 860 860 861 861 861 862 862 861 861 861 861 860 860 860 860 859 859 858 858 858 857 856 856 856 855 854 853 852 851 850 850 849 849 849 848 846 845 844 842 840 838 836 834 833 833 833 832 828 826 825 823 821 820 818 817 816 815 815 814 814 814
854 854 854 856 857 858 858 858 857 857 858 858 857 857 856 855 854 854 854 855 857 857 857 857 858 858 859 859 859 860 860 860 859 859 859 858 858 858 858 857 857 856 855 856 855 853 853 852 851 850 849 848 847 847 846 845 845 846 844 842 842 842 840 837 835 833 831 830 829 829 829 826 824 823 822 819 817 815 814 814 813 812 812 811 811
853 853 854 856 858 858 859 858 857 857 857 857 857 856 855 854 853 852 853 854 856 856 857 857 857 857 858 858 858 858 858 858 858 857 857 857 856 856 856 856 855 854 854 853 852 851 850 849 848 847 846 845 844 843 842 842 842 842 841 839 839 839 837 835 833 831 829 827 826 826 825 824 823 821 820 818 814 811 811 812 811 810 809 809 808